Vorticity
2 7 9 11 11 7 3 3 4 4 3 1 2 6 8 6 6 6 5 4 4 4 5 6 8 9 10 9 7 7 8 7 7 6 5 5 5 7 7 7 5 4 5 4 4 6 6 10 13 13 9 5 6 7 3 1 4 7 10 11 7 1 -2
-2 2 7 9 12 15 11 5 3 5 6 5 2 4 8 10 9 8 6 4 3 5 6 7 8 9 11 13 11 9 8 9 8 7 7 6 6 6 6 5 5 4 4 4 5 7 8 11 15 12 6 3 5 5 4 5 7 8 10 7 1 -2 -1
-1 2 5 6 8 16 18 9 2 3 6 6 5 5 9 13 11 6 3 3 3 3 5 6 6 8 10 13 14 11 10 10 8 8 8 6 6 4 4 5 5 4 4 4 6 6 7 13 17 11 4 3 5 7 5 5 8 9 7 2 -2 -0 3
14 12 7 4 6 14 21 15 4 5 8 6 6 7 10 11 6 1 0 1 3 4 6 7 6 7 9 14 16 13 12 10 8 8 6 5 5 5 7 8 6 5 4 3 5 6 9 17 17 8 4 6 7 6 5 6 9 7 2 -1 0 3 3
19 17 13 9 8 13 21 19 10 10 11 7 6 7 10 9 2 0 1 1 4 6 6 6 6 8 11 14 17 15 14 12 10 8 7 5 5 7 8 7 6 6 4 4 6 6 12 18 13 5 5 7 7 6 6 7 6 2 0 2 4 4 3
4 9 15 12 12 17 22 19 11 10 9 7 9 9 9 8 5 3 3 3 5 5 4 5 6 9 11 13 15 15 15 15 14 13 10 7 7 9 8 5 5 6 5 7 6 7 16 18 9 3 5 6 6 7 6 5 2 0 2 4 4 6 6
0 9 13 4 4 16 27 25 13 8 10 11 10 8 5 5 6 5 3 5 7 5 3 5 8 9 10 10 11 12 13 15 16 15 13 11 10 10 9 7 7 8 9 9 6 11 19 15 5 3 5 6 6 6 4 1 0 1 3 5 7 8 7
5 11 7 -4 -3 8 22 30 21 10 11 12 8 5 3 3 6 7 7 9 9 5 4 7 10 9 7 8 9 10 11 12 14 15 14 14 14 12 10 11 11 11 11 8 8 15 17 9 4 3 5 8 6 4 2 1 1 3 6 8 8 6 4
5 7 3 -1 -1 3 13 25 25 16 11 9 8 7 7 7 8 10 13 13 9 5 5 8 10 6 5 8 10 10 11 12 14 16 17 17 18 17 16 16 14 10 9 7 9 16 14 5 3 4 7 8 5 2 1 2 4 8 9 9 5 2 3
8 8 6 5 0 -3 3 13 19 20 16 10 9 11 12 10 7 10 15 14 8 4 4 8 8 4 6 9 9 9 11 13 15 16 18 22 25 24 19 16 12 8 7 8 11 16 11 3 4 8 9 6 2 2 3 4 9 10 7 4 2 3 4
8 10 5 3 1 0 2 7 12 17 17 13 14 16 15 11 8 10 14 12 8 5 6 9 8 5 5 6 6 8 10 13 14 14 18 23 25 20 14 9 7 7 6 8 14 15 7 3 8 9 6 3 1 2 5 9 11 6 3 2 4 5 5
1 5 2 0 5 4 1 4 8 14 14 9 9 13 12 9 9 12 13 11 8 6 6 8 6 4 3 4 5 7 7 10 14 12 13 20 21 13 9 8 5 5 6 9 14 13 6 6 9 6 3 2 1 4 10 12 6 1 2 5 5 4 4
-3 0 2 3 4 0 -1 1 2 9 17 12 5 9 12 10 10 11 11 12 11 10 10 9 6 2 0 1 5 9 7 9 15 12 7 12 17 12 7 7 6 6 6 9 13 10 6 7 6 3 2 0 2 9 12 7 1 3 6 5 3 1 3
-4 -1 5 3 2 2 4 6 3 4 17 23 14 7 7 8 9 9 9 9 7 6 8 8 6 2 1 2 4 8 8 7 12 15 8 5 11 14 11 6 7 7 5 7 12 10 8 8 3 1 1 1 8 13 8 1 3 6 4 2 2 2 3
0 4 13 6 1 6 6 6 6 2 5 18 23 15 7 2 2 3 4 5 5 4 6 9 7 3 4 8 6 5 7 6 7 15 16 9 5 10 15 12 9 7 5 7 11 10 8 5 1 1 2 7 12 8 -0 2 5 4 2 1 2 2 2
2 6 18 11 1 5 6 1 4 5 4 11 22 23 13 1 -3 -1 1 1 4 5 5 8 10 7 7 10 8 3 3 4 4 9 16 18 11 6 12 16 12 7 5 7 10 9 6 3 1 2 5 9 8 1 -2 3 3 1 1 2 2 2 2
-2 2 18 19 9 7 6 -0 -1 2 5 10 18 23 18 6 -4 -3 1 1 3 5 3 5 9 10 10 10 8 4 1 2 4 5 10 19 21 12 9 14 16 9 4 6 9 7 4 3 3 4 6 6 3 -1 -0 2 2 2 1 1 2 2 3
-5 -4 7 14 15 12 7 4 2 -2 -1 9 16 14 15 12 4 1 3 2 2 4 3 2 2 3 7 10 9 6 2 -2 -1 2 6 12 21 21 13 12 17 12 2 5 12 9 3 4 5 4 4 4 3 2 2 1 2 3 1 1 2 2 4
-4 -4 -1 2 6 8 4 6 9 3 2 12 16 11 7 8 9 9 5 2 5 6 4 3 2 2 4 6 8 9 7 2 -1 1 4 7 15 22 17 12 15 13 5 6 11 8 3 3 6 5 3 3 4 2 2 2 2 3 2 1 1 2 5
1 -2 -1 -2 1 3 1 3 8 8 6 9 14 13 3 -4 3 12 8 3 4 4 2 2 3 4 4 2 7 14 15 11 6 3 4 5 8 16 19 17 16 14 8 5 6 7 6 5 7 6 2 2 4 2 -1 0 3 4 4 2 1 3 5
9 5 -0 -5 -2 4 2 -0 -0 0 0 1 4 7 4 0 6 13 9 2 1 1 1 1 -1 1 2 0 5 16 20 16 10 6 6 7 5 9 19 21 16 13 7 4 8 12 9 6 8 6 2 2 3 1 -0 1 5 6 3 2 1 2 5
11 11 7 -1 -1 4 3 0 -1 -2 0 1 -2 -3 -1 2 8 12 7 -2 -1 6 6 2 -1 -1 -2 -2 0 8 14 13 9 6 6 8 6 6 14 20 18 15 9 6 12 13 7 7 11 8 3 3 2 1 1 1 3 4 3 2 1 0 4
10 10 10 7 5 4 1 -0 1 2 3 2 -0 -1 -1 -1 4 12 11 0 0 10 8 2 1 -0 -1 -1 -2 -0 7 8 5 4 6 9 8 7 11 18 19 16 12 11 12 11 11 17 18 8 1 2 1 1 1 1 2 3 3 2 0 1 3
9 8 9 8 8 7 3 0 0 2 3 3 5 6 3 2 4 6 4 -1 -0 4 2 -1 -0 -2 -1 3 4 9 17 15 4 2 5 6 7 8 11 15 17 16 16 16 14 15 21 23 12 2 1 1 1 1 1 -0 0 1 2 2 0 2 3
7 7 7 9 8 5 3 2 1 -0 -1 1 7 8 3 2 8 7 4 4 4 3 4 6 3 -1 0 4 10 21 27 18 6 3 5 6 6 8 9 12 16 17 14 15 17 19 21 15 4 0 2 1 2 3 1 0 0 -0 1 1 0 1 3
7 6 5 7 7 5 3 2 3 4 2 3 8 8 2 1 6 7 8 12 11 7 10 10 3 3 5 4 12 26 24 14 8 4 2 5 6 5 8 11 15 17 16 16 18 16 12 6 2 1 2 1 2 2 1 1 0 0 0 -1 0 1 2
7 5 4 5 4 4 3 -1 1 5 4 3 3 2 2 6 7 5 7 10 7 5 10 10 4 7 9 4 13 27 15 2 8 10 5 7 8 4 5 6 8 15 21 17 11 9 8 4 2 1 -1 0 3 2 2 2 -0 0 1 -1 -0 2 2
11 6 5 6 4 4 4 0 0 2 -1 -1 2 -0 -1 3 4 4 5 4 3 7 14 12 6 6 6 1 10 20 2 -13 2 15 9 8 11 8 5 4 5 15 23 15 4 3 6 3 2 3 1 -0 0 0 1 2 -1 -0 1 -0 0 1 1
15 13 11 11 8 5 3 -0 0 3 -1 -3 0 1 0 -1 -2 -1 -0 -2 1 7 7 3 1 2 3 1 4 13 7 -3 5 15 12 11 12 10 7 6 5 10 18 14 3 0 4 3 0 1 1 -0 0 2 3 2 1 2 1 -0 0 1 -0
10 15 16 18 18 15 11 7 4 4 2 1 4 7 10 13 11 9 7 4 6 8 4 4 4 1 1 1 -0 6 10 -1 -9 -4 4 9 11 7 5 4 3 7 15 18 10 1 1 3 1 -0 1 -1 -1 0 -1 -1 -1 1 3 2 0 2 4
6 9 10 12 15 17 20 21 20 21 19 16 14 13 15 17 16 15 16 15 14 12 9 11 12 7 6 7 5 7 9 2 -3 -0 4 8 12 10 6 4 2 3 7 12 11 4 1 3 3 0 -2 -3 -1 -3 -5 1 3 -4 -2 6 5 3 4
5 3 0 -3 -2 4 11 14 15 18 19 15 13 10 8 8 7 6 8 9 10 11 10 8 7 4 3 4 3 5 8 8 10 9 5 8 16 16 11 6 2 1 2 4 5 3 1 2 3 4 2 -1 0 -1 -1 10 11 -10 -16 1 8 2 1
-3 -3 -1 -2 -3 1 6 6 4 5 7 8 9 8 7 10 11 9 8 7 6 7 7 6 6 3 2 3 4 6 6 5 5 5 4 10 17 18 15 10 3 -2 -1 2 1 -1 1 2 1 2 4 1 1 3 7 17 17 -6 -15 2 8 0 1
-8 -8 -3 0 2 4 7 8 6 5 6 6 7 8 9 11 10 10 11 12 12 13 11 9 8 6 6 7 6 5 3 3 6 6 3 2 5 7 11 18 21 15 7 4 2 -2 -2 2 1 1 5 4 3 3 5 10 9 -11 -18 3 12 -0 0
-1 -3 -5 -3 0 3 7 8 6 6 6 5 6 7 6 5 6 8 11 12 14 16 16 14 11 8 7 7 7 6 4 6 11 13 11 9 10 10 10 14 24 26 14 5 4 3 0 -0 -3 0 7 7 4 3 -1 4 6 -17 -31 -8 9 1 4
4 2 -1 -2 -2 -2 0 2 2 4 5 3 3 4 1 -0 1 3 6 12 14 13 15 18 17 16 15 13 13 14 13 12 13 14 14 13 12 13 11 7 15 32 33 15 0 0 8 9 1 -3 -1 -1 -3 -4 -8 -3 10 1 -15 -6 5 0 7
2 2 2 -0 -1 -1 -3 -3 -0 4 6 6 7 7 6 6 4 1 3 9 13 15 18 17 15 16 18 17 15 14 12 9 8 7 9 13 13 16 17 11 8 19 29 25 10 -5 -3 15 21 10 2 1 -0 -2 -5 -5 4 10 5 2 3 4 10
10 10 9 4 3 3 -2 -3 2 5 6 8 8 9 13 14 12 13 11 8 10 14 14 11 11 11 12 11 11 12 11 10 8 6 5 6 5 6 12 16 15 14 14 21 20 -4 -18 9 36 25 6 4 3 1 4 5 2 5 5 -0 1 9 12
Height
5880 5882 5884 5886 5887 5887 5887 5889 5890 5892 5892 5893 5894 5895 5895 5895 5896 5897 5898 5899 5900 5901 5902 5903 5903 5904 5905 5905 5906 5907 5907 5908 5908 5909 5909 5909 5910 5911 5912 5911 5911 5912 5912 5913 5913 5914 5914 5914 5914 5914 5914 5914 5913 5913 5913 5914 5914 5913 5912 5911 5911 5910 5909
5878 5880 5882 5883 5884 5885 5886 5886 5887 5889 5890 5891 5892 5892 5893 5894 5895 5896 5896 5897 5898 5898 5900 5901 5901 5902 5902 5903 5904 5905 5906 5906 5906 5907 5907 5907 5908 5909 5910 5910 5910 5910 5910 5911 5912 5912 5913 5913 5913 5912 5913 5912 5912 5912 5912 5912 5912 5912 5911 5910 5910 5909 5908
5875 5877 5879 5880 5882 5883 5884 5884 5884 5886 5887 5888 5889 5890 5892 5893 5893 5894 5894 5894 5895 5896 5897 5899 5899 5900 5900 5901 5902 5903 5904 5904 5905 5905 5905 5905 5906 5907 5907 5908 5908 5908 5908 5909 5910 5911 5911 5911 5911 5911 5911 5911 5911 5911 5911 5911 5911 5910 5909 5909 5909 5908 5907
5872 5874 5876 5877 5879 5880 5881 5881 5882 5883 5885 5886 5887 5888 5890 5891 5891 5891 5892 5892 5893 5894 5895 5896 5897 5897 5898 5898 5899 5900 5901 5902 5903 5903 5903 5903 5904 5904 5905 5906 5906 5906 5906 5907 5908 5909 5910 5910 5910 5909 5909 5909 5910 5910 5910 5910 5909 5908 5908 5908 5907 5907 5906
5869 5871 5872 5873 5875 5876 5877 5878 5879 5881 5882 5883 5885 5886 5887 5888 5888 5889 5889 5890 5891 5892 5893 5893 5894 5895 5896 5896 5897 5898 5898 5899 5900 5901 5901 5901 5901 5902 5903 5903 5904 5904 5904 5905 5906 5907 5908 5908 5908 5907 5907 5908 5908 5908 5908 5908 5908 5907 5906 5906 5906 5905 5904
5867 5868 5869 5870 5872 5873 5873 5875 5876 5878 5879 5881 5882 5883 5884 5885 5885 5886 5887 5888 5889 5890 5890 5891 5892 5893 5893 5894 5895 5895 5896 5896 5897 5898 5898 5898 5899 5900 5901 5901 5901 5902 5902 5903 5904 5905 5905 5906 5906 5906 5906 5906 5906 5907 5907 5907 5906 5905 5905 5905 5905 5904 5903
5865 5866 5867 5868 5869 5870 5870 5871 5873 5875 5877 5878 5879 5880 5880 5881 5882 5884 5884 5885 5886 5887 5888 5889 5890 5891 5891 5892 5893 5893 5893 5894 5894 5895 5895 5895 5896 5897 5898 5898 5899 5899 5899 5900 5902 5903 5903 5903 5904 5904 5904 5904 5905 5905 5905 5905 5904 5904 5904 5904 5903 5903 5902
5862 5863 5864 5866 5867 5868 5868 5868 5870 5872 5873 5875 5876 5876 5877 5879 5880 5881 5882 5883 5884 5885 5886 5888 5888 5889 5889 5890 5890 5891 5891 5891 5891 5891 5892 5892 5893 5894 5895 5895 5896 5897 5897 5898 5900 5900 5901 5901 5902 5902 5902 5903 5903 5903 5904 5903 5903 5903 5903 5903 5902 5901 5900
5860 5861 5862 5863 5865 5866 5866 5866 5867 5869 5870 5872 5873 5874 5876 5877 5878 5879 5880 5881 5882 5883 5884 5886 5886 5887 5887 5888 5888 5888 5889 5889 5889 5889 5889 5890 5890 5891 5891 5893 5894 5894 5895 5896 5897 5898 5898 5899 5899 5900 5900 5901 5901 5902 5902 5902 5902 5902 5902 5901 5901 5900 5899
5856 5858 5860 5861 5862 5864 5865 5865 5865 5866 5867 5869 5870 5872 5873 5874 5876 5877 5878 5879 5879 5881 5882 5883 5884 5885 5885 5886 5886 5886 5887 5887 5887 5887 5887 5888 5888 5888 5889 5890 5891 5892 5893 5894 5895 5896 5896 5896 5897 5898 5898 5898 5899 5900 5900 5900 5900 5900 5900 5899 5899 5898 5897
5852 5854 5856 5858 5860 5861 5862 5863 5863 5864 5865 5866 5868 5869 5870 5872 5873 5874 5875 5876 5878 5879 5880 5881 5882 5883 5883 5884 5884 5885 5885 5885 5885 5886 5886 5886 5886 5886 5887 5887 5889 5890 5890 5892 5893 5893 5893 5894 5895 5895 5896 5896 5897 5897 5898 5898 5898 5898 5897 5897 5897 5896 5895
5849 5850 5852 5854 5857 5859 5860 5860 5861 5862 5863 5864 5865 5867 5868 5869 5870 5872 5873 5874 5875 5876 5877 5879 5880 5881 5881 5882 5883 5883 5884 5884 5884 5885 5884 5884 5885 5885 5885 5885 5886 5887 5888 5890 5891 5891 5891 5892 5892 5893 5893 5893 5894 5895 5895 5896 5895 5895 5895 5895 5894 5893 5892
5845 5846 5848 5851 5853 5856 5857 5858 5859 5860 5860 5861 5862 5864 5866 5867 5868 5869 5870 5871 5872 5874 5875 5876 5878 5879 5879 5880 5881 5882 5882 5883 5883 5883 5883 5883 5883 5883 5883 5884 5884 5884 5885 5887 5889 5889 5889 5890 5890 5890 5890 5891 5892 5893 5893 5893 5893 5893 5892 5892 5891 5890 5888
5841 5843 5845 5847 5849 5851 5853 5855 5856 5857 5858 5859 5860 5861 5863 5865 5866 5867 5868 5869 5870 5871 5872 5874 5875 5876 5877 5878 5879 5880 5881 5881 5882 5882 5882 5881 5881 5881 5882 5882 5882 5882 5882 5884 5886 5887 5887 5888 5887 5887 5888 5889 5890 5890 5891 5891 5891 5891 5890 5889 5888 5887 5885
5838 5839 5841 5843 5844 5845 5848 5851 5853 5854 5855 5856 5858 5859 5860 5862 5864 5865 5866 5867 5867 5868 5870 5872 5873 5874 5875 5876 5877 5879 5879 5880 5880 5880 5880 5880 5879 5879 5880 5881 5880 5879 5879 5881 5884 5885 5885 5885 5885 5886 5887 5887 5888 5888 5889 5889 5889 5888 5888 5887 5886 5884 5883
5834 5836 5838 5840 5841 5842 5844 5847 5849 5851 5852 5854 5855 5856 5857 5859 5861 5863 5864 5865 5865 5867 5868 5869 5870 5871 5872 5874 5876 5877 5877 5877 5878 5878 5878 5878 5878 5878 5878 5879 5878 5877 5877 5879 5881 5882 5883 5883 5884 5885 5886 5886 5886 5886 5886 5887 5886 5886 5885 5884 5883 5882 5881
5830 5832 5834 5837 5839 5840 5842 5843 5845 5847 5849 5851 5852 5853 5854 5856 5858 5860 5861 5862 5863 5865 5866 5867 5868 5869 5870 5872 5873 5874 5874 5875 5875 5875 5875 5875 5875 5875 5876 5876 5875 5875 5875 5876 5878 5878 5880 5881 5883 5884 5884 5884 5884 5884 5884 5884 5883 5883 5882 5882 5881 5880 5878
5826 5828 5831 5833 5835 5837 5839 5840 5842 5843 5845 5848 5849 5850 5852 5853 5855 5856 5858 5859 5861 5862 5863 5864 5865 5866 5868 5869 5870 5871 5872 5872 5873 5873 5873 5873 5873 5873 5873 5872 5872 5872 5872 5873 5875 5876 5877 5879 5881 5882 5882 5881 5881 5881 5881 5881 5880 5880 5879 5879 5878 5877 5876
5822 5824 5827 5829 5831 5834 5835 5837 5839 5841 5842 5845 5847 5848 5849 5851 5852 5853 5855 5856 5858 5859 5860 5861 5863 5864 5865 5866 5867 5868 5869 5869 5870 5871 5871 5871 5870 5870 5869 5869 5869 5870 5870 5871 5872 5873 5874 5877 5878 5879 5879 5879 5879 5878 5878 5878 5877 5877 5876 5875 5875 5874 5873
5818 5820 5823 5825 5827 5830 5832 5834 5836 5838 5840 5842 5843 5845 5846 5847 5849 5850 5851 5852 5853 5855 5856 5857 5859 5861 5862 5863 5864 5865 5866 5866 5867 5868 5868 5868 5867 5866 5866 5866 5866 5867 5867 5868 5869 5870 5872 5874 5875 5876 5876 5876 5875 5875 5875 5875 5874 5873 5873 5872 5872 5870 5869
5814 5817 5819 5820 5823 5825 5827 5829 5831 5833 5835 5837 5840 5841 5842 5843 5845 5846 5847 5848 5849 5850 5852 5854 5855 5857 5858 5859 5860 5862 5862 5862 5863 5864 5865 5864 5863 5863 5863 5863 5863 5864 5864 5865 5867 5868 5869 5871 5872 5872 5873 5872 5872 5872 5872 5872 5871 5870 5870 5869 5868 5867 5866
5811 5813 5815 5817 5819 5821 5823 5824 5826 5828 5831 5833 5835 5836 5837 5839 5841 5842 5843 5845 5846 5847 5849 5850 5851 5853 5854 5855 5857 5858 5859 5859 5860 5860 5861 5861 5860 5860 5860 5860 5860 5861 5861 5862 5864 5865 5866 5867 5868 5869 5869 5869 5869 5869 5869 5869 5868 5867 5866 5865 5864 5863 5862
5808 5809 5811 5813 5815 5817 5818 5819 5821 5824 5826 5828 5831 5832 5834 5836 5838 5838 5839 5841 5842 5844 5845 5846 5847 5849 5850 5851 5853 5854 5856 5856 5856 5856 5857 5857 5857 5857 5857 5857 5857 5858 5858 5860 5861 5862 5863 5863 5864 5865 5865 5865 5865 5866 5866 5865 5864 5863 5862 5861 5861 5859 5859
5803 5805 5807 5808 5811 5813 5814 5815 5817 5819 5821 5823 5825 5828 5830 5832 5834 5835 5836 5837 5838 5840 5841 5842 5843 5845 5846 5848 5849 5850 5851 5852 5852 5852 5853 5853 5854 5854 5854 5854 5854 5855 5855 5857 5858 5858 5859 5860 5860 5860 5861 5861 5862 5862 5862 5861 5860 5859 5858 5858 5857 5856 5855
5798 5801 5802 5804 5806 5808 5810 5812 5813 5815 5817 5819 5821 5823 5826 5827 5829 5830 5831 5833 5834 5835 5836 5838 5839 5840 5842 5843 5844 5845 5845 5847 5847 5847 5848 5849 5850 5851 5850 5850 5851 5851 5852 5853 5854 5855 5855 5855 5855 5856 5857 5858 5858 5858 5857 5857 5857 5856 5855 5854 5853 5852 5850
5792 5795 5797 5799 5801 5803 5806 5808 5809 5811 5813 5815 5818 5819 5821 5822 5824 5825 5826 5827 5829 5829 5831 5833 5835 5836 5837 5838 5838 5839 5840 5841 5843 5843 5844 5845 5846 5847 5847 5847 5847 5847 5848 5849 5850 5851 5851 5851 5851 5852 5853 5854 5854 5853 5853 5853 5853 5852 5851 5850 5849 5847 5846
5787 5790 5793 5795 5796 5798 5800 5802 5804 5807 5809 5811 5813 5814 5815 5817 5818 5819 5821 5821 5822 5824 5827 5829 5830 5831 5831 5831 5832 5834 5835 5836 5838 5839 5840 5840 5842 5842 5842 5842 5843 5843 5844 5845 5845 5846 5846 5847 5848 5849 5850 5850 5849 5849 5849 5849 5849 5848 5847 5846 5844 5843 5842
5783 5785 5787 5789 5791 5793 5795 5797 5799 5801 5803 5806 5807 5808 5809 5810 5812 5814 5815 5816 5817 5819 5822 5824 5825 5825 5826 5825 5825 5828 5830 5830 5832 5834 5835 5835 5836 5836 5837 5838 5838 5839 5839 5840 5840 5841 5842 5843 5844 5845 5845 5845 5845 5845 5845 5845 5844 5843 5842 5841 5840 5839 5838
5778 5780 5781 5783 5785 5787 5790 5792 5794 5796 5797 5799 5801 5802 5803 5804 5806 5808 5809 5810 5812 5815 5817 5817 5818 5819 5820 5819 5819 5821 5823 5824 5826 5828 5829 5830 5830 5831 5832 5833 5833 5834 5834 5834 5835 5837 5838 5839 5840 5840 5840 5840 5840 5840 5839 5839 5839 5838 5837 5836 5835 5835 5834
5773 5774 5776 5778 5780 5782 5784 5786 5788 5790 5791 5793 5794 5795 5797 5798 5800 5801 5802 5804 5807 5809 5810 5811 5811 5812 5814 5814 5814 5815 5817 5818 5819 5821 5823 5825 5825 5825 5826 5827 5828 5828 5829 5830 5831 5832 5833 5834 5834 5834 5834 5834 5834 5833 5831 5831 5830 5830 5830 5830 5830 5830 5830
5768 5770 5772 5774 5776 5778 5780 5781 5783 5785 5786 5787 5788 5789 5790 5792 5793 5794 5796 5799 5800 5801 5803 5804 5805 5806 5807 5808 5809 5810 5811 5813 5813 5814 5816 5819 5819 5819 5820 5821 5822 5822 5823 5824 5825 5826 5827 5828 5827 5826 5826 5827 5826 5825 5824 5824 5824 5823 5823 5824 5824 5824 5824
5764 5766 5768 5770 5772 5773 5775 5777 5778 5780 5781 5783 5784 5784 5785 5786 5788 5789 5791 5793 5794 5795 5796 5797 5798 5799 5800 5801 5802 5803 5805 5806 5807 5807 5808 5810 5812 5813 5813 5813 5814 5815 5816 5817 5817 5818 5819 5820 5819 5818 5819 5820 5821 5821 5821 5821 5820 5818 5817 5818 5818 5818 5819
5759 5761 5763 5765 5767 5768 5770 5771 5773 5774 5775 5777 5778 5779 5780 5781 5783 5784 5785 5786 5787 5788 5789 5790 5791 5791 5792 5793 5795 5795 5796 5797 5798 5799 5800 5801 5802 5804 5805 5806 5807 5809 5809 5808 5808 5809 5811 5812 5812 5812 5812 5813 5815 5816 5815 5815 5814 5812 5811 5812 5813 5813 5814
5754 5756 5757 5759 5761 5763 5764 5765 5766 5768 5769 5770 5772 5773 5775 5776 5777 5778 5779 5780 5781 5781 5782 5783 5783 5784 5785 5787 5787 5788 5788 5789 5790 5790 5790 5790 5791 5793 5796 5799 5800 5801 5802 5802 5801 5801 5802 5805 5805 5803 5802 5804 5807 5807 5806 5808 5808 5806 5806 5807 5808 5808 5809
5749 5750 5752 5754 5755 5757 5758 5759 5760 5761 5763 5764 5765 5766 5767 5769 5770 5770 5772 5773 5773 5774 5774 5775 5776 5777 5778 5779 5779 5780 5781 5781 5782 5782 5781 5781 5781 5783 5786 5789 5790 5793 5795 5795 5794 5795 5795 5796 5796 5793 5793 5796 5798 5798 5798 5800 5801 5800 5801 5802 5803 5804 5805
5743 5744 5746 5748 5749 5751 5752 5753 5754 5755 5756 5757 5758 5759 5760 5761 5762 5763 5764 5765 5766 5766 5766 5767 5768 5768 5769 5770 5771 5772 5772 5772 5772 5772 5772 5772 5772 5774 5776 5778 5779 5782 5785 5787 5788 5787 5785 5783 5783 5784 5786 5788 5789 5790 5793 5794 5795 5796 5797 5797 5798 5799 5799
5737 5738 5740 5742 5743 5744 5745 5745 5747 5748 5750 5751 5751 5752 5753 5755 5755 5756 5757 5758 5759 5760 5759 5760 5760 5760 5760 5761 5761 5762 5762 5762 5762 5762 5762 5762 5763 5764 5766 5769 5770 5772 5776 5780 5781 5779 5776 5774 5773 5774 5777 5780 5780 5784 5787 5789 5790 5792 5792 5791 5792 5793 5794
5730 5732 5733 5734 5736 5737 5738 5738 5740 5742 5743 5744 5745 5746 5747 5748 5749 5750 5751 5751 5752 5753 5752 5753 5753 5752 5752 5752 5751 5751 5750 5749 5750 5750 5750 5751 5752 5753 5756 5759 5762 5765 5768 5771 5771 5771 5773 5773 5770 5767 5769 5772 5774 5777 5781 5783 5785 5786 5785 5784 5786 5788 5788